Wind_Speed
6 6 6 6 6 5 5 4 4 3 4 4 4 4 3 3 3 4 4 4 5 6 7 7 8 9 10 11 12 13 13 14 14 15 15 16 16 17 17 17 17 18 18 18 18 19 19 19 19
5 5 6 6 6 6 5 5 4 3 3 3 3 3 4 3 3 3 4 4 5 6 6 7 8 9 10 11 12 13 13 14 15 15 16 17 17 17 18 18 18 18 18 18 19 19 20 20 20
5 5 5 5 5 5 5 4 4 3 2 1 2 2 3 3 3 3 4 4 5 6 7 8 9 10 11 12 13 13 14 14 15 16 16 17 17 18 18 18 18 18 18 19 19 19 20 20 20
5 5 5 5 4 4 4 3 3 2 1 0 1 2 3 4 4 5 5 5 6 7 7 8 9 10 10 11 12 13 13 14 15 15 16 16 17 17 17 18 18 19 19 19 19 20 20 20 21
6 5 5 5 4 4 3 3 3 2 2 2 2 3 4 5 5 6 6 6 7 7 8 9 9 10 11 12 13 13 14 15 15 16 16 17 17 18 18 18 19 19 20 20 21 21 21 22 22
8 7 7 6 5 5 4 4 4 4 4 4 4 5 5 6 7 8 8 8 9 9 10 10 11 12 13 13 14 15 16 16 17 17 18 18 19 19 19 20 20 20 21 21 22 22 23 23 23
11 10 9 8 8 7 6 6 5 6 6 6 7 7 7 8 9 10 10 11 11 11 12 13 13 14 15 15 16 17 18 18 19 19 19 20 20 21 21 21 21 22 22 23 23 24 24 24 25
14 13 12 11 10 9 9 8 8 8 8 8 9 9 10 10 10 11 11 12 12 13 14 15 15 16 16 17 18 18 19 20 20 20 21 21 21 22 22 22 23 23 23 24 24 25 25 25 26
18 16 15 14 13 13 12 11 10 10 10 10 11 11 12 12 12 13 13 13 14 15 15 16 17 17 18 18 19 19 20 20 21 21 22 22 22 22 23 23 24 24 25 25 25 25 25 26 26
21 19 18 18 17 16 15 14 13 13 13 13 13 13 14 14 14 15 15 15 16 16 16 17 18 19 19 19 20 20 21 21 21 22 22 23 23 23 23 24 24 24 25 25 25 26 26 27 27
24 22 22 20 19 18 18 17 16 16 16 16 16 16 16 16 17 17 17 18 18 18 18 18 19 19 20 21 21 21 22 22 22 23 23 23 23 24 24 24 25 25 25 26 26 27 27 27 28
27 26 25 24 22 22 21 20 19 19 20 19 18 18 18 18 19 19 19 20 20 20 20 20 20 21 21 22 23 23 23 23 24 24 24 24 25 25 25 26 26 26 26 27 27 27 28 28 29
29 28 28 27 26 25 24 23 22 22 23 22 21 21 21 21 21 21 22 22 22 23 23 23 23 23 23 24 24 24 24 25 25 26 26 26 26 27 27 27 27 27 28 28 28 29 29 29 30
31 30 30 29 28 27 26 26 25 25 25 24 24 24 24 24 24 24 24 25 25 25 25 25 25 25 25 25 26 26 26 26 27 27 27 27 28 28 28 28 28 28 28 29 29 30 30 30 31
33 33 32 32 31 30 30 28 28 28 28 27 27 27 27 27 27 27 27 27 27 27 27 27 27 26 27 27 27 27 27 27 28 28 29 29 29 29 29 29 29 29 30 30 30 31 31 32 32
34 34 34 34 34 34 33 31 31 31 30 30 29 30 30 30 29 29 29 29 29 29 28 29 28 29 29 29 29 29 29 29 29 30 30 30 30 30 30 30 30 31 31 31 32 32 32 32 33
35 35 34 35 36 36 35 33 34 34 33 32 32 32 32 32 32 32 31 31 30 30 30 30 30 30 30 30 30 30 30 30 30 30 31 31 31 31 31 31 32 32 32 32 33 33 33 33 34
36 36 35 35 37 37 37 34 34 36 35 34 34 34 34 34 34 34 33 32 32 31 31 31 31 32 32 32 32 32 31 31 31 31 31 31 31 31 31 32 32 33 33 33 33 34 34 34 35
38 37 35 36 38 39 38 35 34 36 37 36 36 36 36 36 36 34 34 33 33 33 33 33 33 32 32 33 33 33 32 32 31 31 31 31 31 32 32 33 33 33 34 34 34 35 35 36 36
38 37 36 37 39 40 39 36 35 36 37 37 37 37 36 36 36 35 34 34 34 34 33 33 33 33 33 33 33 33 32 32 31 31 31 32 32 33 33 33 34 34 34 35 35 36 36 37 37
39 37 36 37 38 40 40 36 34 35 37 37 37 37 36 36 36 35 35 34 34 33 33 33 33 33 33 33 33 33 32 32 32 32 32 32 33 33 34 34 35 35 36 36 36 37 37 38 38
38 37 37 37 38 38 38 37 31 33 34 36 37 36 35 35 35 35 34 34 34 34 34 34 34 33 33 33 33 32 32 32 32 32 32 33 33 34 34 35 36 36 37 37 38 38 39 39 40
38 37 37 37 38 38 36 38 32 30 32 34 35 35 35 35 35 35 34 34 34 33 33 33 34 34 33 33 32 32 32 33 33 32 33 33 34 34 35 35 36 37 38 38 39 39 40 41 42
38 37 37 37 37 38 34 36 33 29 29 31 33 34 34 34 34 34 34 33 33 32 33 33 32 32 32 32 32 32 32 32 33 33 33 34 34 35 36 37 38 38 39 39 40 41 41 42 43
37 36 37 38 38 38 35 35 33 29 29 30 31 32 33 33 33 33 32 32 32 32 31 31 31 31 31 31 32 32 32 32 33 34 34 35 35 36 37 38 38 39 40 41 41 42 43 44 44
37 37 37 38 38 37 36 34 31 29 29 29 30 30 31 31 31 31 31 31 31 30 30 30 30 31 31 31 32 32 32 33 34 34 35 36 36 37 38 39 39 40 41 42 43 44 44 45 45
38 37 36 38 39 38 37 33 29 28 29 29 29 29 30 30 30 30 30 31 30 30 30 30 30 30 31 31 32 32 33 33 34 34 35 36 37 38 39 40 41 42 42 43 44 44 45 46 47
38 37 37 39 39 38 37 32 28 28 28 29 29 29 29 29 29 29 30 30 30 31 31 31 30 31 31 32 32 33 33 34 35 36 36 37 39 40 40 41 42 43 44 44 45 46 47 47 48
38 38 38 39 40 38 36 32 28 28 27 28 29 29 29 30 29 29 30 30 30 30 30 30 30 31 31 32 32 34 35 35 35 36 37 38 40 41 41 42 43 44 45 45 46 47 48 48 49
40 39 39 39 38 37 36 34 29 28 28 28 29 29 30 30 29 30 30 30 30 30 30 30 31 31 32 33 34 35 35 35 36 37 38 39 41 42 43 44 44 45 46 47 48 48 49 50 51
Wind_Direction
120 123 126 127 132 135 140 147 157 169 184 197 207 216 221 229 238 242 245 247 251 257 262 265 267 268 270 271 273 274 274 275 276 277 277 278 278 279 279 281 281 281 281 281 281 281 282 282 283
134 129 128 126 126 130 134 138 139 142 158 187 207 220 224 229 238 242 246 252 260 265 267 270 271 273 275 276 277 278 277 277 279 280 281 281 281 282 282 282 282 281 281 282 283 283 283 283 284
148 141 138 135 132 134 139 138 134 131 135 168 212 229 233 235 244 249 254 260 265 269 272 276 277 277 278 278 279 279 279 280 282 282 283 283 283 284 284 284 284 284 284 284 284 284 284 284 285
170 157 155 152 152 153 157 154 152 148 140 152 251 255 250 246 253 259 264 270 273 274 277 279 281 282 281 281 281 282 282 283 284 284 284 284 284 284 285 284 284 285 285 285 285 286 286 286 286
196 185 178 178 180 183 184 185 192 203 217 245 266 267 264 261 261 265 269 274 277 279 280 282 283 284 284 283 282 282 284 284 285 285 285 285 285 284 284 284 284 284 284 285 285 285 286 286 286
213 208 205 204 207 211 214 219 224 229 239 251 263 267 265 265 265 267 271 275 279 283 283 284 284 285 285 284 283 283 283 284 284 285 285 285 285 285 284 284 284 284 284 285 285 285 285 285 285
222 221 220 221 223 228 235 239 244 246 248 254 261 266 266 268 269 271 272 275 278 282 283 283 283 284 284 285 285 284 284 284 284 283 283 284 284 284 284 284 284 284 285 285 285 285 285 285 285
229 229 228 229 231 236 241 247 253 255 256 260 263 266 269 271 272 274 275 277 278 281 282 282 283 283 283 284 285 285 283 283 283 283 283 283 283 283 283 283 283 284 284 284 285 285 284 284 284
235 234 233 234 235 238 242 246 252 257 259 262 264 267 269 272 274 277 278 279 280 280 282 282 283 283 284 285 285 285 284 284 284 284 283 283 283 283 283 283 284 284 284 284 285 284 284 284 284
237 237 237 237 238 240 243 245 249 254 258 261 263 267 269 272 275 278 280 281 281 281 281 282 283 284 284 285 285 286 285 285 285 285 284 283 284 284 284 284 285 285 285 285 284 284 285 285 285
238 239 239 240 242 243 244 246 249 253 257 260 263 265 268 270 273 276 278 281 282 282 281 281 282 283 284 285 285 286 286 285 284 284 284 284 284 285 285 286 286 286 286 286 286 285 285 285 285
240 240 241 243 244 245 246 248 251 254 257 260 263 265 267 269 272 276 279 281 282 282 282 281 281 281 282 284 284 285 285 285 284 284 284 284 285 285 285 286 287 287 287 287 287 287 286 286 285
241 242 244 245 246 247 248 250 252 255 257 260 263 264 266 267 270 274 278 279 280 281 281 281 281 281 283 284 284 284 284 284 284 285 285 285 286 286 286 287 287 288 288 288 288 288 288 287 287
242 243 245 247 248 249 251 253 254 256 259 260 262 264 265 267 269 272 275 277 279 279 279 279 279 280 281 283 284 284 283 284 284 284 285 285 286 286 286 286 287 287 288 289 289 289 288 288 288
242 244 246 248 250 251 253 255 256 257 260 262 263 265 265 266 268 271 274 276 277 278 278 278 278 278 280 281 282 283 283 283 283 284 284 285 285 285 286 287 288 288 289 289 289 289 289 289 289
243 245 247 250 252 253 254 255 258 259 260 262 264 266 266 267 268 270 273 274 276 277 278 278 278 278 279 280 281 282 282 282 283 283 284 285 285 285 286 288 288 289 289 290 290 290 290 289 290
244 246 248 251 253 254 255 256 259 261 261 263 265 267 267 267 268 270 271 273 274 275 277 277 277 278 279 280 280 281 281 281 281 282 283 284 284 285 287 288 289 289 290 290 290 290 290 290 290
246 247 248 252 254 255 257 257 258 262 263 264 266 267 268 268 268 270 271 271 272 274 276 277 277 277 278 279 279 280 280 280 281 281 282 283 284 286 287 288 289 289 290 290 290 291 291 290 291
246 247 248 251 255 256 258 258 259 262 264 265 266 267 268 268 269 270 270 271 272 273 275 276 277 277 277 278 278 279 279 279 280 281 283 284 285 286 287 288 289 290 290 290 290 291 291 291 291
246 248 250 252 255 258 259 259 260 262 263 265 266 267 268 268 268 269 269 270 271 273 274 275 276 276 276 277 278 279 279 279 279 281 281 283 285 287 287 289 290 290 290 291 291 291 291 291 291
247 249 251 253 256 259 261 259 260 261 264 265 266 267 268 269 269 268 269 270 271 272 274 275 275 276 276 276 277 277 277 277 279 280 281 283 285 287 288 289 290 291 291 292 292 292 292 292 292
247 249 251 254 256 259 262 262 256 261 264 265 266 267 268 269 269 269 269 270 271 272 273 274 274 275 275 276 276 276 276 277 279 280 282 284 285 287 288 289 290 291 292 292 293 293 293 293 293
247 248 252 255 258 259 261 265 260 260 261 264 267 268 268 269 269 270 270 270 271 272 272 273 274 274 275 274 275 276 277 278 279 280 282 284 286 287 289 290 291 292 292 293 293 293 294 294 294
246 248 252 254 257 259 260 265 266 264 263 263 265 267 268 269 269 270 270 271 271 271 271 272 273 273 274 274 275 276 276 278 279 281 283 285 287 288 290 291 292 293 293 293 294 294 294 294 295
244 247 251 254 256 260 261 263 268 268 266 265 266 267 268 268 269 269 269 269 270 271 271 271 271 272 273 274 275 275 276 278 280 282 283 285 287 288 289 291 292 293 293 294 294 295 295 296 296
243 246 250 256 259 261 262 264 267 269 269 268 268 268 268 268 269 269 269 269 270 270 270 270 270 271 273 274 275 276 277 279 280 282 284 285 287 288 290 291 293 294 294 294 295 296 296 297 297
241 245 249 255 258 262 263 265 266 269 270 270 269 269 268 268 268 268 269 269 269 270 270 270 271 272 273 274 275 276 278 280 281 283 285 286 288 289 290 292 293 294 295 295 296 297 297 297 297
241 243 246 251 257 262 264 266 270 270 271 270 269 269 269 269 269 269 268 269 269 270 270 271 272 272 273 274 276 277 279 280 281 283 285 286 288 289 291 292 293 295 296 296 297 297 297 298 298
240 243 246 251 255 261 266 267 268 271 271 270 270 269 269 270 270 270 269 269 270 270 271 272 272 272 273 274 276 278 279 281 282 284 286 287 289 291 291 292 294 295 296 296 297 298 298 299 299
239 242 245 250 255 259 263 265 268 270 270 270 270 270 270 270 270 270 270 270 271 271 270 270 271 272 273 275 277 279 280 282 284 285 286 288 290 291 292 293 294 295 296 296 297 298 299 299 299
Height
5878 5878 5878 5879 5880 5880 5880 5880 5880 5880 5880 5881 5881 5881 5882 5882 5883 5885 5882 5881 5881 5881 5881 5881 5881 5881 5880 5880 5880 5880 5880 5879 5879 5878 5878 5878 5877 5876 5876 5875 5874 5873 5873 5872 5871 5870 5870 5869 5868
5878 5878 5879 5879 5879 5880 5880 5880 5880 5880 5880 5880 5880 5880 5881 5881 5881 5881 5880 5880 5880 5880 5880 5880 5879 5879 5879 5878 5878 5878 5878 5877 5877 5876 5876 5875 5875 5874 5873 5873 5872 5871 5870 5869 5868 5868 5867 5866 5865
5878 5878 5879 5879 5879 5879 5880 5879 5879 5879 5879 5879 5880 5880 5880 5880 5880 5880 5879 5879 5879 5879 5879 5878 5878 5878 5877 5877 5876 5876 5876 5875 5875 5874 5874 5873 5872 5871 5871 5870 5869 5868 5867 5866 5866 5865 5864 5863 5862
5877 5878 5879 5879 5878 5879 5879 5879 5878 5878 5878 5879 5879 5879 5879 5879 5879 5879 5878 5878 5878 5877 5877 5877 5876 5876 5875 5875 5874 5874 5873 5873 5872 5872 5871 5870 5870 5869 5868 5867 5866 5865 5864 5863 5862 5861 5860 5859 5858
5876 5877 5878 5878 5878 5878 5878 5878 5878 5877 5877 5878 5878 5878 5878 5878 5878 5877 5877 5877 5876 5876 5875 5875 5875 5874 5873 5873 5872 5872 5871 5870 5870 5869 5868 5867 5867 5866 5865 5864 5863 5862 5861 5860 5859 5857 5856 5855 5855
5876 5876 5877 5877 5877 5877 5877 5877 5877 5876 5876 5876 5876 5876 5876 5876 5876 5876 5875 5875 5875 5874 5873 5873 5872 5872 5871 5871 5870 5869 5868 5868 5867 5866 5865 5864 5863 5862 5861 5860 5859 5858 5857 5856 5855 5854 5852 5851 5850
5874 5874 5875 5875 5875 5875 5876 5875 5875 5875 5875 5875 5875 5874 5874 5874 5874 5874 5873 5873 5873 5872 5871 5871 5870 5869 5869 5868 5867 5866 5866 5865 5864 5863 5862 5861 5860 5859 5858 5857 5855 5854 5853 5852 5851 5849 5848 5847 5845
5870 5872 5872 5872 5873 5873 5873 5873 5873 5873 5873 5873 5873 5872 5872 5872 5871 5871 5871 5870 5870 5869 5869 5868 5867 5866 5866 5865 5864 5863 5862 5861 5860 5859 5858 5857 5856 5855 5854 5852 5851 5850 5849 5847 5846 5844 5843 5842 5840
5866 5869 5869 5869 5870 5871 5871 5871 5871 5871 5871 5870 5870 5870 5870 5869 5869 5868 5868 5868 5867 5866 5866 5865 5864 5863 5862 5861 5860 5859 5858 5857 5856 5855 5854 5853 5852 5850 5849 5848 5847 5845 5844 5843 5841 5840 5838 5837 5835
5862 5864 5865 5866 5866 5867 5867 5868 5868 5868 5868 5868 5868 5867 5867 5866 5866 5865 5865 5864 5864 5863 5862 5861 5860 5859 5859 5858 5857 5855 5854 5853 5852 5851 5850 5849 5847 5846 5845 5843 5842 5841 5839 5837 5836 5834 5833 5831 5829
5857 5859 5860 5861 5862 5863 5864 5864 5865 5865 5865 5864 5864 5864 5863 5863 5862 5862 5861 5861 5860 5860 5859 5858 5857 5856 5855 5854 5852 5851 5850 5849 5848 5847 5846 5844 5843 5841 5840 5838 5837 5835 5834 5832 5830 5829 5827 5825 5823
5852 5853 5855 5856 5857 5858 5859 5860 5861 5861 5861 5860 5860 5860 5860 5859 5858 5858 5857 5857 5856 5855 5854 5854 5853 5852 5850 5849 5848 5847 5846 5844 5843 5842 5841 5839 5838 5837 5835 5834 5832 5830 5828 5827 5825 5823 5821 5819 5817
5846 5848 5849 5850 5852 5853 5854 5855 5856 5856 5856 5856 5856 5856 5856 5855 5854 5854 5853 5852 5851 5851 5850 5849 5848 5847 5846 5845 5843 5842 5841 5840 5838 5837 5836 5834 5833 5831 5830 5828 5826 5824 5823 5821 5819 5817 5815 5813 5811
5840 5842 5843 5844 5846 5847 5849 5850 5851 5851 5851 5851 5851 5851 5851 5850 5849 5849 5848 5847 5846 5845 5845 5844 5843 5842 5841 5840 5838 5837 5836 5835 5833 5832 5830 5829 5827 5826 5824 5822 5820 5819 5817 5815 5812 5810 5808 5806 5804
5833 5835 5837 5838 5839 5841 5843 5844 5845 5845 5845 5846 5846 5846 5845 5845 5844 5843 5842 5842 5841 5840 5839 5838 5837 5836 5835 5834 5833 5832 5830 5829 5827 5826 5824 5823 5821 5820 5818 5816 5814 5812 5810 5808 5806 5803 5801 5799 5797
5826 5828 5830 5832 5832 5834 5837 5839 5838 5838 5839 5839 5840 5839 5839 5839 5838 5837 5836 5836 5835 5834 5833 5832 5831 5830 5829 5828 5827 5826 5824 5823 5822 5820 5818 5817 5815 5813 5811 5810 5808 5806 5803 5801 5799 5797 5794 5792 5790
5819 5821 5823 5824 5825 5826 5829 5831 5831 5830 5832 5833 5833 5833 5832 5832 5831 5831 5830 5829 5828 5828 5827 5826 5825 5824 5823 5822 5821 5819 5818 5817 5815 5814 5812 5810 5809 5807 5805 5803 5801 5799 5796 5794 5792 5789 5787 5785 5782
5812 5814 5816 5817 5817 5818 5820 5823 5824 5823 5824 5825 5825 5825 5825 5825 5824 5824 5823 5822 5822 5821 5820 5819 5818 5817 5816 5815 5814 5813 5811 5810 5809 5807 5806 5804 5802 5800 5798 5796 5794 5791 5789 5787 5785 5782 5780 5777 5775
5803 5806 5808 5809 5808 5810 5812 5815 5817 5816 5816 5817 5817 5817 5817 5817 5816 5816 5816 5815 5814 5814 5813 5812 5811 5810 5809 5808 5807 5806 5804 5803 5802 5800 5799 5797 5795 5793 5791 5789 5787 5784 5782 5780 5777 5775 5772 5770 5767
5795 5798 5801 5802 5801 5802 5804 5807 5809 5808 5808 5808 5808 5808 5809 5808 5808 5808 5808 5807 5807 5806 5805 5804 5803 5803 5802 5801 5799 5798 5797 5796 5795 5793 5791 5790 5788 5786 5784 5782 5779 5777 5774 5772 5769 5767 5764 5761 5758
5787 5791 5793 5794 5793 5793 5795 5800 5802 5801 5800 5800 5800 5800 5800 5800 5800 5800 5800 5799 5799 5798 5797 5797 5796 5795 5794 5793 5792 5791 5790 5788 5787 5786 5784 5782 5780 5778 5776 5774 5772 5769 5767 5764 5761 5758 5756 5753 5750
5780 5783 5784 5785 5785 5786 5788 5789 5795 5794 5793 5792 5791 5792 5792 5792 5792 5792 5792 5791 5791 5790 5790 5789 5788 5787 5786 5785 5784 5783 5782 5781 5780 5778 5777 5775 5773 5771 5769 5766 5764 5761 5758 5756 5753 5750 5747 5744 5741
5771 5774 5776 5777 5777 5779 5780 5779 5786 5787 5786 5784 5784 5784 5784 5784 5784 5784 5783 5783 5783 5782 5781 5781 5780 5779 5778 5778 5777 5776 5775 5774 5772 5771 5769 5767 5765 5763 5761 5758 5755 5753 5750 5747 5744 5741 5738 5734 5731
5763 5766 5767 5768 5769 5771 5774 5772 5776 5778 5778 5777 5776 5775 5775 5775 5775 5775 5775 5775 5775 5774 5773 5773 5772 5771 5771 5770 5769 5768 5767 5766 5765 5763 5761 5759 5757 5755 5752 5750 5747 5744 5741 5738 5735 5732 5728 5725 5721
5755 5758 5759 5760 5761 5763 5765 5765 5768 5769 5769 5768 5768 5768 5767 5767 5767 5767 5767 5767 5766 5766 5765 5765 5764 5764 5763 5762 5761 5760 5759 5758 5757 5755 5753 5751 5749 5747 5744 5741 5738 5735 5732 5729 5725 5722 5718 5714 5711
5748 5750 5753 5754 5754 5755 5756 5757 5761 5761 5760 5760 5760 5759 5759 5759 5759 5759 5759 5758 5758 5758 5757 5757 5756 5756 5755 5754 5753 5753 5752 5750 5749 5747 5745 5743 5740 5738 5735 5732 5729 5726 5722 5719 5715 5712 5708 5704 5700
5739 5741 5745 5745 5744 5746 5747 5750 5754 5753 5752 5752 5752 5751 5751 5751 5751 5751 5751 5751 5750 5750 5750 5749 5749 5748 5747 5746 5745 5744 5743 5742 5740 5739 5736 5734 5732 5729 5726 5723 5719 5716 5712 5709 5705 5701 5697 5693 5689
5731 5733 5735 5735 5736 5737 5740 5743 5745 5744 5744 5744 5744 5743 5743 5743 5743 5743 5743 5743 5742 5742 5742 5741 5741 5740 5739 5738 5737 5736 5735 5733 5732 5730 5728 5725 5722 5719 5716 5713 5710 5706 5702 5698 5694 5690 5686 5682 5677
5723 5725 5727 5728 5729 5731 5732 5737 5737 5737 5736 5736 5736 5735 5735 5735 5735 5735 5735 5735 5734 5734 5734 5733 5733 5732 5731 5730 5729 5728 5726 5725 5723 5721 5718 5716 5713 5710 5707 5703 5699 5696 5692 5687 5683 5679 5675 5670 5665
5712 5715 5718 5721 5722 5723 5725 5730 5729 5729 5728 5728 5728 5727 5727 5728 5727 5727 5727 5727 5726 5726 5726 5725 5724 5724 5723 5722 5721 5719 5718 5716 5714 5712 5709 5706 5703 5700 5696 5693 5689 5685 5681 5676 5672 5667 5663 5658 5653